Regional Weather Roundup
Issued by NWS

Home | Current Version | Previous Version | Graphics & Text | Print | Product List | Glossary On
Versions: 1 2 3 4 5 6 7 8 9 10 11 12 13 14 15 16 17 18 19 20 21 22 23 24 25 26 27 28 29 30 31 32 33 34 35 36 37 38 39 40 41 42 43 44 45 46 47 48 49 50
000
ASUS45 KABQ 230801
RWRNM
NEW MEXICO REGIONAL WEATHER ROUNDUP
NATIONAL WEATHER SERVICE ALBUQUERQUE NM
200 AM MDT SAT SEP 23 2017

NOTE: "FAIR" MEANS FEW OR NO CLOUDS BELOW 12,000 FEET AGL WITH NO
       SIGNIFICANT WEATHER OR OBSTRUCTIONS TO VISION.

      THIS PRODUCT IS RELEASED AS TWO VERSIONS.  ONE VERSION NEAR
      THE TOP OF THE HOUR CONTAINING PRELIMINARY DATA FROM ALBUQUERQUE
      AND OTHER STATIONS.  A FINAL VERSION WITH ADDITIONAL DATA IS
      ISSUED ABOUT 10 MINUTES AFTER THE HOUR.

NMZ501-503-504-510>518-230900-
NORTHWEST PLATEAU/NORTHCENTRAL MOUNTAINS

CITY           SKY/WX    TMP DP  RH WIND       PRES   REMARKS
FARMINGTON     MOCLDY    54  31  41 NE6       29.88R
LOS ALAMOS     FAIR      62  32  31 SW3       30.02S
SANTA FE       CLOUDY    60  39  45 CALM      29.97R
TAOS           LGT RAIN  59  41  51 SE6       30.04S
ANGEL FIRE     FAIR      51  37  60 S9        30.11F

$$
NMZ402-403-502-505>509-230900-
WESTCENTRAL MOUNTAINS/SOUTHWEST MOUNTAINS

CITY           SKY/WX    TMP DP  RH WIND       PRES   REMARKS
GALLUP         FAIR      49  31  49 CALM      29.93F
GRANTS         FAIR      49  38  65 S7        29.97R
SILVER CITY    CLOUDY    60  45  58 N6        29.93S

$$
NMZ407-409-411-412-230900-
SOUTHERN DESERTS

CITY           SKY/WX    TMP DP  RH WIND       PRES   REMARKS
DEMING         CLOUDY    69  43  38 NW5       29.86S
LAS CRUCES     FAIR      71  36  28 S3        29.88S
HOLLOMAN AFB   CLOUDY    78  52  40 S16       29.87R
ALAMOGORDO     CLOUDY    81  48  32 S18G24    29.86R
T OR C         MOCLDY    70  41  34 E6        29.86S

$$
NMZ519>523-230900-
CENTRAL VALLEYS/CENTRAL HIGHLANDS

CITY           SKY/WX    TMP DP  RH WIND       PRES   REMARKS
ALBUQUERQUE    MOCLDY    67  35  30 SE9       29.90R
CLINES CORNERS MOCLDY    58  50  75 S10       30.05R
BELEN          MOCLDY    64  32  29 CALM      29.89R
SOCORRO        MOCLDY    67  35  30 S3        29.87S

$$
NMZ524>526-539-540-230900-
SOUTHCENTRAL MOUNTAINS

CITY           SKY/WX    TMP DP  RH WIND       PRES   REMARKS
RUIDOSO        CLOUDY    63  50  63 S5        30.06S

$$
NMZ527>531-230900-
NORTHEAST HIGHLANDS/NORTHEAST PLAINS

CITY           SKY/WX    TMP DP  RH WIND       PRES   REMARKS
LAS VEGAS      CLOUDY    63  56  78 S18G25    30.04R
RATON          MOCLDY    62  54  74 SW15      29.98R
CLAYTON        FAIR      63  61  93 S13       29.95S

$$
NMZ532>537-230900-
EASTCENTRAL PLAINS

CITY           SKY/WX    TMP DP  RH WIND       PRES   REMARKS
SANTA ROSA     FAIR      70  61  72 S17G26    29.90S
TUCUMCARI      FAIR      71  62  73 SW9       29.89R
CANNON AFB     FAIR      68  68 100 S9        29.95R
CLOVIS AIRPORT FAIR      67  61  81 S12       29.95R

$$
NMZ028-029-538-230900-
SOUTHEAST PLAINS

CITY           SKY/WX    TMP DP  RH WIND       PRES   REMARKS
ROSWELL        FAIR      75  62  64 S15       29.85F
ARTESIA        FAIR      75  63  64 SE17      29.84F
CARLSBAD       FAIR      71  67  87 S6        29.84S
HOBBS          FAIR      72  61  68 S12       29.90S


$$




USA.gov is the U.S. government's official web portal to all federal, state and local government web resources and services.